Regional Weather Roundup
Issued by NWS

Home | Current Version | Previous Version | Graphics & Text | Print | Product List | Glossary On
Versions: 1 2 3 4 5 6 7 8 9 10 11 12 13 14 15 16 17 18 19 20 21 22 23 24 25 26 27 28 29 30 31 32 33 34 35 36 37 38 39 40 41 42 43 44 45 46 47 48 49 50
000
ASUS43 KMPX 050201
RWRMN
WEATHER ROUNDUP FOR MINNESOTA
NATIONAL WEATHER SERVICE TWIN CITIES/CHANHASSEN MN
900 PM CDT MON MAY 04 2015


NOTE: "FAIR" INDICATES FEW OR NO CLOUDS BELOW 12,000 FEET WITH NO
SIGNIFICANT WEATHER AND/OR OBSTRUCTIONS TO VISIBILITY. N/A MEANS
CURRENT SKY AND/OR WEATHER CONDITIONS ARE NOT AVAILABLE.

MNZ060>063-068>070-050300-
   Twin Cities Metro

CITY           SKY/WX    TMP DP  RH WIND       PRES   REMARKS
TWIN CITIES    MOCLDY    65  28  24 VRB6      30.17R
ST PAUL        MOCLDY    64  34  32 N3        30.17S
CRYSTAL        MOCLDY    59  32  36 NE3       30.16S
LAKEVILLE      MOCLDY    57  37  47 CALM      30.17R
EDEN PRAIRIE   MOCLDY    64  27  24 NE3       30.16R
SOUTH ST PAUL  MOCLDY    64  30  27 CALM      30.16S
LAKE ELMO      FAIR      57  36  44 N3        30.18S
$$
MNZ001>005-007-008-013>017-022>024-027-028-050300-
   Northwest Minnesota

CITY           SKY/WX    TMP DP  RH WIND       PRES   REMARKS
BEMIDJI        CLEAR     55  26  32 SE5       30.19R
HALLOCK        CLEAR     61  18  18 CALM      30.14S
ROSEAU         CLEAR     59  30  33 CALM      30.17R
WARROAD        CLEAR     54  34  47 CALM      30.17S
THIEF RVR FALL CLEAR     61  23  23 CALM      30.18S
CROOKSTON      CLEAR     61  28  29 SE3       30.18R
FOSSTON        CLEAR     55  21  26 CALM      30.19R
DETROIT LAKES  CLEAR     59  30  33 S3        30.20S
MOORHEAD       CLEAR     61  25  25 S5        30.18R
PARK RAPIDS    CLEAR     59  30  33 S5        30.18S
MAHNOMEN       FAIR      60  22  22 CALM      30.17S
$$
MNZ006-009>011-018-025>026-050300-
   North Central Minnesota

CITY           SKY/WX    TMP DP  RH WIND       PRES   REMARKS
BAUDETTE       CLEAR     55  27  34 CALM      30.18R
FLAG ISLAND    CLEAR     54  36  50 CALM      30.16S
INTL FALLS     CLEAR     44  31  60 CALM      30.19R
WASKISH        CLEAR     52  36  54 CALM      30.20R
BIG FORK       CLEAR     50  27  40 CALM      30.21R
LONGVILLE      CLEAR     48  28  46 CALM      30.21R
GRAND RAPIDS   CLEAR     54  21  28 CALM      30.21S
CRANE LAKE     CLEAR     45  36  70 CALM      30.23R
ORR            CLEAR     54  25  32 CALM      30.18R
COOK           CLEAR     50  28  43 CALM      30.21R HAZE
WALKER         FAIR      57  32  38 CALM      30.19S
$$
MNZ012-019>021-037-050300-
   Northeast Minnesota

CITY           SKY/WX    TMP DP  RH WIND       PRES   REMARKS
DULUTH         CLEAR     57  18  21 W3        30.20R
ELY            CLEAR     48  28  46 CALM      30.22R
HIBBING        CLEAR     44  27  51 CALM      30.20R
EVELETH        CLEAR     50  27  40 CALM      30.22R
DULUTH HARBOR  CLEAR     61  21  21 CALM      30.20R
TWO HARBORS    CLEAR     52  30  43 CALM      30.19R
SILVER BAY     CLEAR     46  27  46 CALM      30.20R
GRAND MARAIS     N/A     45  33  63 CALM      30.22R
G MARAIS ARPRT CLEAR     48  23  37 CALM      30.24R
$$
MNZ029>031-032-039>041-046>048-054>057-064-050300-
   West Central Minnesota

CITY           SKY/WX    TMP DP  RH WIND       PRES   REMARKS
FERGUS FALLS   CLEAR     61  30  31 CALM      30.19S
WHEATON        MOCLDY    61  28  29 E9        30.18R
MORRIS         MOCLDY    59  30  33 E7        30.16S
ALEXANDRIA     PTCLDY    56  32  40 NE6       30.20R
ELBOW LAKE     FAIR      59  29  32 NE7       30.18S
WADENA         CLEAR     52  30  43 CALM      30.20R
GLENWOOD       PTCLDY    57  30  35 N7        30.19S
APPLETON       MOCLDY    61  27  27 E8        30.15S
BENSON         PTCLDY    57  25  28 CALM      30.17S
ORTONVILLE     MOCLDY    61  28  29 E8        30.15S
MADISON        MOCLDY    59  25  27 NE7       30.15R
WILLMAR        FAIR      63  30  29 NE5       30.19R
$$
MNZ033>034-036-042>043-049>051-058-059-050300-
   Central Minnesota

CITY           SKY/WX    TMP DP  RH WIND       PRES   REMARKS
ST CLOUD       PTCLDY    59  26  28 NE5       30.19S
SAUK CENTRE    FAIR      57  35  42 NE5       30.19R
PAYNESVILLE    PTCLDY    58  31  37 CALM      30.19R
AITKIN         CLEAR     48  25  40 CALM      30.20R
PINE RIVER     CLEAR     52  34  50 CALM      30.23S
BRAINERD       PTCLDY    52  24  33 CALM      30.21R
STAPLES        CLEAR     55  28  35 CALM      30.20R
LONG PRAIRIE   FAIR      54  32  43 NE3       30.20R
LITTLE FALLS   CLEAR     54  27  35 CALM      30.21R
LITCHFIELD     MOCLDY    63  30  29 NE5       30.18S
BUFFALO        MOCLDY    59  30  32 N5        30.19S
MAPLE LAKE     MOCLDY    59  31  34 NE3       30.19S
$$
MNZ037-044-045-052-053-050300-
   East Central Minnesota

CITY           SKY/WX    TMP DP  RH WIND       PRES   REMARKS
PRINCETON      PTCLDY    57  28  33 N3        30.19S
MORA           CLEAR     52  28  40 CALM      30.22R
CAMBRIDGE      PTCLDY    55  36  47 CALM      30.18R
RUSH CITY      PTCLDY    54  28  37 CALM      30.19S
MOOSE LAKE     PTCLDY    52  23  32 CALM      30.19R
HINCKLEY       FAIR      52  28  40 N3        30.19S
CLOQUET        CLEAR     52  19  28 CALM      30.21R
MCGREGOR       CLEAR     52  28  40 CALM      30.21R
$$
MNZ071>073-080-081-089-090-097-098-050300-
   Southwest Minnesota

CITY           SKY/WX    TMP DP  RH WIND       PRES   REMARKS
MONTEVIDEO     MOCLDY    59  28  31 E8        30.16S
GRANITE FALLS  MOCLDY    60  28  29 NE6       30.16F
CANBY          MOCLDY    60  26  27 E8        30.15S
MARSHALL       MOCLDY    63  25  23 E9        30.14S
REDWOOD FALLS  MOCLDY    65  27  23 E7        30.15S
OLIVIA         MOCLDY    59  27  29 E5        30.16R
WINDOM         MOCLDY    55  30  38 E5        30.15F
WORTHINGTON    CLOUDY    57  27  30 E9        30.15R
JACKSON        CLOUDY    61  27  27 E9        30.15S
TRACY          MOCLDY    65  30  27 SE7       30.15R
SLAYTON        CLOUDY    61  27  27 CALM      30.16R
$$
MNZ065>067-074>077-082>085-091>093-050300-
   South Central Minnesota

CITY           SKY/WX    TMP DP  RH WIND       PRES   REMARKS
MANKATO        MOCLDY    63  30  29 E6        30.16S
NEW ULM        MOCLDY    61  30  31 SE6       30.16R
ST JAMES       MOCLDY    59  27  29 NE5       30.17R
FAIRMONT       MOCLDY    63  28  27 NE10      30.14S
GLENCOE        MOCLDY    63  30  29 N3        30.17R
FARIBAULT      MOCLDY    55  39  54 CALM      30.17R
OWATONNA       MOCLDY    57  34  41 CALM      30.17R
WASECA         MOCLDY    59  34  38 NE5       30.18R
ALBERT LEA     CLOUDY    59  43  55 E5        30.15S
$$
MNZ078>079-086>088-094>096-050300-
   Southeast Minnesota

CITY           SKY/WX    TMP DP  RH WIND       PRES   REMARKS
ROCHESTER      MOCLDY    57  38  48 NE7       30.17R
RED WING       MOCLDY    55  43  62 CALM      30.15S
STANTON        MOCLDY    58  35  42 CALM      30.16R
DODGE CENTER   MOCLDY    61  34  36 NE6       30.17R
WINONA         MOCLDY    59  46  63 CALM      30.16R
AUSTIN         MOCLDY    57  43  58 NE3       30.15S
PRESTON        MOCLDY    57  40  51 NE6       30.16S
$$
ABBREVIATIONS USED IN REMARKS
   TC - TEMPERATURES IN CELSIUS
  WCI - WIND CHILL INDEX
   HX - HEAT INDEX
  VSB - VISIBILITY
$$


USA.gov is the U.S. government's official web portal to all federal, state and local government web resources and services.